Tracking 30922 objects as of 2-Jul-2025
HD Live streaming from Space Station
objects crossing your sky now

THORAD AGENA D DEB

Track THORAD AGENA D DEB now!
10-day predictions


NORAD ID: 42514
Int'l Code: 1970-025RU
Perigee: 1,039.7 km
Apogee: 1,320.6 km
Inclination: 99.4 °
Period: 108.8 minutes
Semi major axis: 7551 km
RCS: Unknown
Launch date: April 8, 1970
Source: United States (US)
Launch site: AIR FORCE WESTERN TEST RANGE (AFWTR)

Note: This is SATELLITE DEBRIS
Your satellite tracking list
WESTFORD NEEDLES
Track 1 satellite(s)




NASA's NSSDC Master Catalog

Two Line Element Set (TLE):
1 42514U 70025RU  25181.21559889  .00000173  00000-0  45487-3 0  9996
2 42514  99.3562 334.5743 0185990  74.7319 287.4278 13.23063398560056
Source of the keplerian elements: AFSPC